Tracking 29892 objects as of 21-Nov-2024
HD Live streaming from Space Station
objects crossing your sky now

STARLINK-31181

Track STARLINK-31181 now!
10-day predictions
STARLINK-31181 is classified as:


NORAD ID: 58746
Int'l Code: 2024-005U
Perigee: 493.9 km
Apogee: 496.5 km
Inclination: 43.0 °
Period: 94.4 minutes
Semi major axis: 6866 km
RCS: Unknown
Launch date: January 7, 2024
Source: United States (US)
Launch site: AIR FORCE EASTERN TEST RANGE (AFETR)
Your satellite tracking list
Your tracking list is empty




NASA's NSSDC Master Catalog

Two Line Element Set (TLE):
1 58746U 24005U   24325.88375846  .00000574  00000-0  31787-4 0  9992
2 58746  42.9978 225.5663 0001903 276.5613  83.5021 15.25894159 49790
Source of the keplerian elements: AFSPC